STARLINK-5430, 54803

Orbit data source: Space-Track

STARLINK-5430, 54803 is a payload satellite owned by SpaceX/Seattle (US) in LEO that was launched on Sat, 17 Dec 2022 UTC via an FALCON 9 launch vehicle from the Air Force Eastern Test Range (AFETR). Payload-class satellites include a variety of spacecraft equipped with specific instruments for various scientific and technological missions. These include communications satellites like Starlink; space stations such as the ISS; scientific satellites like the Hubble; Earth observation satellites from companies like Planet Labs, Umbra, and HawkEye 360; GPS; miniature CubeSats for education and research; and military/defense satellites.

Loading next visibility...
Identifier
54803, 2022-175AX
Orbit
LEO
Country
Flag of USUS
Related business
Manufacturer
SpaceX/Seattle
Mission
Operational Commercial Communications
Bus & Motor
STARLINK, Unknown motor
Mass
305 kg wet, ~290 kg dry
Launch date (UTC)
2022-12-17 (4 years ago)
Launch vehicle
FALCON 9
Launch site
Air Force Eastern Test Range (AFETR)
Object type
Payload
Rocket body
Debris
Shape & HBR
Box + 1 Pan, 10.1 m
Radar Cross Section
13.562 m², Large (>1 m²)

Expand to show TLE details & history
Last TLE update: 3 days ago

TLE from 3 days ago
0 STARLINK-5430
1 54803U 22175AX  26170.69998123  .00001693  00000-0  12443-3 0  9996
2 54803  53.1609 305.7310 0001172  85.3497 274.7628 15.08835953195325
Epoch: 2026-06-19T16:47Z
TLE epoch observation values (Epoch: 2026-06-19T16:47:58.378Z)
Latitude
-0.00003°
Longitude
145.81254°
Altitude
540.58 km
Speed
7.593 km/s
True Right ascension
20h 22m 55s
True Declination
0° 00' 00"
Sunlit
Object was in full shadow at epoch
Visualization orbit readout
Latitude
Unknown
Longitude
Unknown
Altitude
Unknown
Speed
Unknown
Apparent Right ascension
Unknown
Apparent Declination
Unknown
Sunlit
N/A
Visualization observer readout
Local Sidereal Time
00:36:32
Azimuth
Unknown
Elevation
Unknown
Doppler factor
Unknown
Orbital elements
Apogee altitude
540.821 km
Perigee altitude
539.199 km
Semi-major axis
6,918.147 km
Eccentricity
0.00012
Inclination
53.1609°
RAAN
305.731°
Arg. of periapsis
85.3497°
True anomaly
274.74942°
Mean anomaly
274.7628°
Eccentric anomaly
274.75611°
Mean motion
3.77189 °/min
Orbital period
95.44 mins
BSTAR
0.00012443
Loading maneuver chart data...
Computing Atmospheric mass density...
Loading historical data...
Loading historical data...
Loading historical data...
Loading historical data...
Loading historical data...
Loading historical data...
Loading historical data...

Documentation

Showing up to 5 results
|